Time,TemperatureF,DewpointF,PressureIn,WindDirection,WindDirectionDegrees,WindSpeedMPH,WindSpeedGustMPH,Humidity,HourlyPrecipIn,Conditions,Clouds,dailyrainin,SoftwareType,DateUTC
2013-11-16 00:10:00,77.9,68.0,30.05,ENE,70,2.0,-999.0,72,-99.99,,,0.00,weatherlink.com 1.10,2013-11-16 05:10:00,
2013-11-16 00:25:00,77.7,68.0,30.05,SSW,203,2.0,-999.0,73,-99.99,,,0.00,weatherlink.com 1.10,2013-11-16 05:25:00,
2013-11-16 00:40:00,77.7,68.0,30.04,ESE,115,2.0,-999.0,73,-99.99,,,0.00,weatherlink.com 1.10,2013-11-16 05:40:00,
2013-11-16 00:55:00,77.7,69.0,30.04,SE,133,0.0,-999.0,74,-99.99,,,0.00,weatherlink.com 1.10,2013-11-16 05:55:00,
2013-11-16 01:10:00,77.7,69.0,30.03,SSE,149,2.0,-999.0,75,-99.99,,,0.00,weatherlink.com 1.10,2013-11-16 06:10:00,
2013-11-16 01:25:00,77.5,69.0,30.03,ESE,107,4.0,-999.0,74,-99.99,,,0.00,weatherlink.com 1.10,2013-11-16 06:25:00,
2013-11-16 01:40:00,77.7,69.0,30.03,SE,128,0.0,-999.0,74,-99.99,,,0.00,weatherlink.com 1.10,2013-11-16 06:40:00,
2013-11-16 01:55:00,77.9,69.0,30.04,SSE,164,2.0,-999.0,74,-99.99,,,0.00,weatherlink.com 1.10,2013-11-16 06:55:00,
2013-11-16 02:10:00,78.0,69.0,30.03,East,100,6.0,-999.0,74,-99.99,,,0.00,weatherlink.com 1.10,2013-11-16 07:10:00,
2013-11-16 02:25:00,78.1,69.0,30.03,SE,133,4.0,-999.0,73,-99.99,,,0.00,weatherlink.com 1.10,2013-11-16 07:25:00,
2013-11-16 02:40:00,78.1,69.0,30.02,ESE,110,0.0,-999.0,74,-99.99,,,0.00,weatherlink.com 1.10,2013-11-16 07:40:00,
2013-11-16 02:55:00,77.9,69.0,30.02,ESE,106,5.0,-999.0,74,-99.99,,,0.00,weatherlink.com 1.10,2013-11-16 07:55:00,
2013-11-16 03:10:00,77.9,69.0,30.02,SE,142,1.0,-999.0,74,-99.99,,,0.00,weatherlink.com 1.10,2013-11-16 08:10:00,
2013-11-16 03:25:00,77.9,69.0,30.03,SE,133,4.0,-999.0,74,-99.99,,,0.00,weatherlink.com 1.10,2013-11-16 08:25:00,
2013-11-16 03:40:00,77.9,69.0,30.02,SE,145,4.0,-999.0,74,-99.99,,,0.00,weatherlink.com 1.10,2013-11-16 08:40:00,
2013-11-16 03:55:00,77.8,69.0,30.02,ENE,73,2.0,-999.0,75,-99.99,,,0.00,weatherlink.com 1.10,2013-11-16 08:55:00,
2013-11-16 04:10:00,77.0,69.0,30.02,East,88,0.0,-999.0,76,-99.99,,,0.00,weatherlink.com 1.10,2013-11-16 09:10:00,
2013-11-16 04:25:00,76.7,69.0,30.02,SE,141,2.0,-999.0,76,-99.99,,,0.00,weatherlink.com 1.10,2013-11-16 09:25:00,
2013-11-16 04:40:00,77.1,69.0,30.01,East,82,2.0,-999.0,75,-99.99,,,0.00,weatherlink.com 1.10,2013-11-16 09:40:00,
2013-11-16 04:55:00,77.3,69.0,30.01,ESE,113,7.0,-999.0,75,-99.99,,,0.00,weatherlink.com 1.10,2013-11-16 09:55:00,
2013-11-16 05:10:00,77.4,68.0,30.01,SSE,161,8.0,-999.0,73,-99.99,,,0.00,weatherlink.com 1.10,2013-11-16 10:10:00,
2013-11-16 05:25:00,77.6,68.0,30.01,South,169,2.0,-999.0,71,-99.99,,,0.00,weatherlink.com 1.10,2013-11-16 10:25:00,
2013-11-16 05:40:00,77.7,68.0,30.01,SSE,148,4.0,-999.0,72,-99.99,,,0.00,weatherlink.com 1.10,2013-11-16 10:40:00,
2013-11-16 05:55:00,77.7,69.0,30.02,South,176,1.0,-999.0,74,-99.99,,,0.00,weatherlink.com 1.10,2013-11-16 10:55:00,
2013-11-16 06:10:00,77.5,69.0,30.03,SE,144,1.0,-999.0,75,-99.99,,,0.00,weatherlink.com 1.10,2013-11-16 11:10:00,
2013-11-16 06:25:00,77.7,70.0,30.03,ESE,112,2.0,-999.0,77,-99.99,,,0.00,weatherlink.com 1.10,2013-11-16 11:25:00,
2013-11-16 06:40:00,77.7,70.0,30.03,SSE,161,1.0,-999.0,78,-99.99,,,0.00,weatherlink.com 1.10,2013-11-16 11:40:00,
2013-11-16 06:55:00,77.6,71.0,30.04,ESE,117,5.0,-999.0,79,-99.99,,,0.00,weatherlink.com 1.10,2013-11-16 11:55:00,
2013-11-16 07:10:00,77.4,71.0,30.04,SE,132,6.0,-999.0,81,-99.99,,,0.00,weatherlink.com 1.10,2013-11-16 12:10:00,
2013-11-16 07:26:00,77.4,71.0,30.05,ESE,111,2.0,-999.0,81,-99.99,,,0.00,weatherlink.com 1.10,2013-11-16 12:26:00,
2013-11-16 07:41:00,77.5,71.0,30.05,SSE,161,7.0,-999.0,81,-99.99,,,0.00,weatherlink.com 1.10,2013-11-16 12:41:00,
2013-11-16 07:56:00,77.3,71.0,30.05,SE,136,1.0,-999.0,82,-99.99,,,0.00,weatherlink.com 1.10,2013-11-16 12:56:00,
2013-11-16 08:11:00,77.1,71.0,30.05,SE,144,5.0,-999.0,82,-99.99,,,0.00,weatherlink.com 1.10,2013-11-16 13:11:00,
2013-11-16 08:26:00,77.0,71.0,30.06,SSE,157,2.0,-999.0,82,-99.99,,,0.00,weatherlink.com 1.10,2013-11-16 13:26:00,
2013-11-16 08:41:00,76.8,71.0,30.06,SSE,152,0.0,-999.0,82,-99.99,,,0.00,weatherlink.com 1.10,2013-11-16 13:41:00,
2013-11-16 08:56:00,76.9,71.0,30.07,SE,141,0.0,-999.0,82,-99.99,,,0.00,weatherlink.com 1.10,2013-11-16 13:56:00,
2013-11-16 09:11:00,77.3,71.0,30.08,SE,138,0.0,-999.0,82,-99.99,,,0.00,weatherlink.com 1.10,2013-11-16 14:11:00,
2013-11-16 09:26:00,77.8,72.0,30.08,SSE,163,2.0,-999.0,82,-99.99,,,0.00,weatherlink.com 1.10,2013-11-16 14:26:00,
2013-11-16 09:41:00,78.2,71.0,30.08,SSE,164,6.0,-999.0,79,-99.99,,,0.00,weatherlink.com 1.10,2013-11-16 14:41:00,
2013-11-16 09:56:00,78.6,71.0,30.07,SSE,153,7.0,-999.0,77,-99.99,,,0.00,weatherlink.com 1.10,2013-11-16 14:56:00,
2013-11-16 10:11:00,78.8,70.0,30.08,SSE,161,6.0,-999.0,75,-99.99,,,0.00,weatherlink.com 1.10,2013-11-16 15:11:00,
2013-11-16 10:26:00,78.9,71.0,30.08,South,169,2.0,-999.0,76,-99.99,,,0.00,weatherlink.com 1.10,2013-11-16 15:26:00,
2013-11-16 10:41:00,78.6,72.0,30.07,SSE,159,8.0,-999.0,80,-99.99,,,0.00,weatherlink.com 1.10,2013-11-16 15:41:00,
2013-11-16 10:56:00,77.3,73.0,30.08,SSE,157,4.0,-999.0,85,-99.99,,,0.00,weatherlink.com 1.10,2013-11-16 15:56:00,
2013-11-16 11:11:00,75.7,72.0,30.08,ESE,105,4.0,-999.0,88,-99.99,,,0.09,weatherlink.com 1.10,2013-11-16 16:11:00,
2013-11-16 11:26:00,73.3,66.0,30.07,ESE,110,2.0,-999.0,79,-99.99,,,0.13,weatherlink.com 1.10,2013-11-16 16:26:00,
2013-11-16 11:41:00,74.4,71.0,30.07,South,179,2.0,-999.0,90,-99.99,,,0.14,weatherlink.com 1.10,2013-11-16 16:41:00,
2013-11-16 11:56:00,73.7,71.0,30.07,ENE,76,1.0,-999.0,90,-99.99,,,0.14,weatherlink.com 1.10,2013-11-16 16:56:00,
2013-11-16 12:11:00,73.7,70.0,30.06,NNE,26,2.0,-999.0,89,-99.99,,,0.14,weatherlink.com 1.10,2013-11-16 17:11:00,
2013-11-16 12:26:00,74.2,71.0,30.05,NE,35,0.0,-999.0,89,-99.99,,,0.14,weatherlink.com 1.10,2013-11-16 17:26:00,
2013-11-16 12:41:00,75.0,72.0,30.05,East,101,0.0,-999.0,89,-99.99,,,0.14,weatherlink.com 1.10,2013-11-16 17:41:00,
2013-11-16 12:56:00,75.7,72.0,30.05,WNW,287,0.0,-999.0,88,-99.99,,,0.14,weatherlink.com 1.10,2013-11-16 17:56:00,
2013-11-16 13:11:00,76.0,72.0,30.04,WNW,286,0.0,-999.0,86,-99.99,,,0.14,weatherlink.com 1.10,2013-11-16 18:11:00,
2013-11-16 13:26:00,76.4,71.0,30.03,WNW,287,0.0,-999.0,84,-99.99,,,0.14,weatherlink.com 1.10,2013-11-16 18:26:00,
2013-11-16 13:41:00,76.9,72.0,30.03,WNW,287,0.0,-999.0,84,-99.99,,,0.14,weatherlink.com 1.10,2013-11-16 18:41:00,
2013-11-16 13:56:00,76.9,72.0,30.02,NNW,329,1.0,-999.0,84,-99.99,,,0.14,weatherlink.com 1.10,2013-11-16 18:56:00,
2013-11-16 14:11:00,76.6,72.0,30.02,WNW,300,1.0,-999.0,86,-99.99,,,0.14,weatherlink.com 1.10,2013-11-16 19:11:00,
2013-11-16 14:26:00,77.0,73.0,30.02,NNW,329,0.0,-999.0,86,-99.99,,,0.14,weatherlink.com 1.10,2013-11-16 19:26:00,
2013-11-16 14:41:00,76.5,72.0,30.01,NNW,333,2.0,-999.0,86,-99.99,,,0.14,weatherlink.com 1.10,2013-11-16 19:41:00,
2013-11-16 14:56:00,76.4,72.0,30.01,NW,311,1.0,-999.0,86,-99.99,,,0.14,weatherlink.com 1.10,2013-11-16 19:56:00,
2013-11-16 15:11:00,76.5,72.0,30.01,NW,313,2.0,-999.0,86,-99.99,,,0.14,weatherlink.com 1.10,2013-11-16 20:11:00,
2013-11-16 15:26:00,76.4,72.0,30.01,NW,319,2.0,-999.0,87,-99.99,,,0.14,weatherlink.com 1.10,2013-11-16 20:26:00,
2013-11-16 15:41:00,76.4,73.0,30.01,WNW,299,0.0,-999.0,88,-99.99,,,0.14,weatherlink.com 1.10,2013-11-16 20:41:00,
2013-11-16 15:56:00,76.8,73.0,30.01,NW,323,2.0,-999.0,88,-99.99,,,0.14,weatherlink.com 1.10,2013-11-16 20:56:00,
2013-11-16 16:11:00,76.8,73.0,30.01,NNW,329,2.0,-999.0,88,-99.99,,,0.14,weatherlink.com 1.10,2013-11-16 21:11:00,
2013-11-16 16:26:00,75.9,72.0,30.01,NE,40,2.0,-999.0,86,-99.99,,,0.14,weatherlink.com 1.10,2013-11-16 21:26:00,
2013-11-16 16:41:00,75.8,71.0,30.02,NNE,27,0.0,-999.0,86,-99.99,,,0.14,weatherlink.com 1.10,2013-11-16 21:41:00,
2013-11-16 16:56:00,75.5,71.0,30.02,NNW,329,0.0,-999.0,86,-99.99,,,0.14,weatherlink.com 1.10,2013-11-16 21:56:00,
2013-11-16 17:11:00,75.3,71.0,30.02,NE,43,0.0,-999.0,86,-99.99,,,0.14,weatherlink.com 1.10,2013-11-16 22:11:00,
2013-11-16 17:26:00,75.3,71.0,30.02,NE,34,0.0,-999.0,86,-99.99,,,0.14,weatherlink.com 1.10,2013-11-16 22:26:00,
2013-11-16 17:41:00,75.3,71.0,30.02,NE,34,0.0,-999.0,87,-99.99,,,0.14,weatherlink.com 1.10,2013-11-16 22:41:00,
2013-11-16 17:56:00,75.3,71.0,30.02,ESE,111,0.0,-999.0,87,-99.99,,,0.14,weatherlink.com 1.10,2013-11-16 22:56:00,
2013-11-16 18:11:00,76.5,71.0,30.03,ENE,74,2.0,-999.0,84,-99.99,,,0.14,weatherlink.com 1.10,2013-11-16 23:11:00,
2013-11-16 18:26:00,77.1,71.0,30.03,ENE,69,0.0,-999.0,82,-99.99,,,0.14,weatherlink.com 1.10,2013-11-16 23:26:00,
2013-11-16 18:41:00,77.2,71.0,30.03,NE,51,0.0,-999.0,81,-99.99,,,0.14,weatherlink.com 1.10,2013-11-16 23:41:00,
2013-11-16 18:56:00,77.1,71.0,30.04,ENE,69,1.0,-999.0,82,-99.99,,,0.14,weatherlink.com 1.10,2013-11-16 23:56:00,
2013-11-16 19:11:00,77.1,71.0,30.04,East,89,0.0,-999.0,81,-99.99,,,0.14,weatherlink.com 1.10,2013-11-17 00:11:00,
2013-11-16 19:26:00,76.9,71.0,30.05,East,95,1.0,-999.0,81,-99.99,,,0.14,weatherlink.com 1.10,2013-11-17 00:26:00,
2013-11-16 19:41:00,77.0,71.0,30.05,ENE,74,1.0,-999.0,81,-99.99,,,0.14,weatherlink.com 1.10,2013-11-17 00:41:00,
2013-11-16 19:56:00,77.1,71.0,30.06,East,95,0.0,-999.0,81,-99.99,,,0.14,weatherlink.com 1.10,2013-11-17 00:56:00,
2013-11-16 20:11:00,77.1,71.0,30.06,East,84,3.0,-999.0,82,-99.99,,,0.14,weatherlink.com 1.10,2013-11-17 01:11:00,
2013-11-16 20:26:00,77.0,71.0,30.06,ENE,74,1.0,-999.0,82,-99.99,,,0.14,weatherlink.com 1.10,2013-11-17 01:26:00,
2013-11-16 20:41:00,77.0,71.0,30.06,ESE,110,0.0,-999.0,82,-99.99,,,0.14,weatherlink.com 1.10,2013-11-17 01:41:00,
2013-11-16 20:56:00,77.1,71.0,30.06,ESE,117,0.0,-999.0,82,-99.99,,,0.14,weatherlink.com 1.10,2013-11-17 01:56:00,
2013-11-16 21:11:00,77.1,72.0,30.06,East,84,0.0,-999.0,83,-99.99,,,0.14,weatherlink.com 1.10,2013-11-17 02:11:00,
2013-11-16 21:26:00,76.9,71.0,30.06,ESE,109,0.0,-999.0,83,-99.99,,,0.14,weatherlink.com 1.10,2013-11-17 02:26:00,
2013-11-16 21:41:00,76.8,71.0,30.06,SE,146,0.0,-999.0,83,-99.99,,,0.14,weatherlink.com 1.10,2013-11-17 02:41:00,
2013-11-16 21:56:00,77.0,72.0,30.06,East,89,1.0,-999.0,83,-99.99,,,0.14,weatherlink.com 1.10,2013-11-17 02:56:00,
2013-11-16 22:11:00,77.1,72.0,30.06,East,92,2.0,-999.0,83,-99.99,,,0.14,weatherlink.com 1.10,2013-11-17 03:11:00,
2013-11-16 22:26:00,77.1,72.0,30.06,ENE,73,3.0,-999.0,84,-99.99,,,0.14,weatherlink.com 1.10,2013-11-17 03:26:00,
2013-11-16 22:41:00,77.2,72.0,30.05,ESE,109,1.0,-999.0,84,-99.99,,,0.14,weatherlink.com 1.10,2013-11-17 03:41:00,
2013-11-16 22:56:00,77.3,72.0,30.05,SE,144,1.0,-999.0,84,-99.99,,,0.14,weatherlink.com 1.10,2013-11-17 03:56:00,
2013-11-16 23:11:00,77.3,72.0,30.05,East,98,1.0,-999.0,84,-99.99,,,0.14,weatherlink.com 1.10,2013-11-17 04:11:00,
2013-11-16 23:26:00,77.3,72.0,30.05,East,93,2.0,-999.0,84,-99.99,,,0.14,weatherlink.com 1.10,2013-11-17 04:26:00,
2013-11-16 23:41:00,77.2,72.0,30.04,ESE,105,0.0,-999.0,85,-99.99,,,0.14,weatherlink.com 1.10,2013-11-17 04:41:00,
2013-11-16 23:56:00,77.2,72.0,30.04,SE,137,0.0,-999.0,85,-99.99,,,0.14,weatherlink.com 1.10,2013-11-17 04:56:00,